When you browse on this site, cookies collect data to enhance your experience and personalize the content and advertising you see.
Visit our Privacy Policy to learn more. By continuing to use the site, you agree to this use of cookies and data.

Meteo pe oră la Świętochłowice

Astăzi, 14 August, Vineri

Timp Temperatura Precipitaţii Vânt Presiune Umiditate
00:00 +23°C° 0 mm 2 m/s 735 mmHg 58%
01:00 +23°C° 0 mm 2 m/s 735 mmHg 59%
02:00 +21°C° 0 mm 2 m/s 735 mmHg 61%
03:00 +21°C° 0 mm 2 m/s 735 mmHg 63%
04:00 +20°C° 0 mm 2 m/s 735 mmHg 65%
05:00 +21°C° 0 mm 2 m/s 735 mmHg 63%
06:00 +23°C° 0 mm 2 m/s 735 mmHg 62%
07:00 +23°C° 0 mm 2 m/s 735 mmHg 61%
08:00 +25°C° 0 mm 2 m/s 735 mmHg 56%
09:00 +27°C° 0 mm 2 m/s 735 mmHg 51%
10:00 +29°C° 0 mm 2 m/s 735 mmHg 47%
11:00 +29°C° 0 mm 2 m/s 735 mmHg 44%
12:00 +30°C° 0 mm 2 m/s 735 mmHg 41%
13:00 +31°C° 0 mm 2 m/s 735 mmHg 38%
14:00 +30°C° 0 mm 2 m/s 735 mmHg 41%
15:00 +30°C° 0 mm 2 m/s 734 mmHg 43%
16:00 +29°C° 0 mm 3 m/s 734 mmHg 45%
17:00 +27°C° 0.5 mm 3 m/s 734 mmHg 52%
18:00 +26°C° 0.5 mm 3 m/s 734 mmHg 59%
19:00 +24°C° 0.5 mm 3 m/s 734 mmHg 66%
20:00 +22°C° 0 mm 3 m/s 734 mmHg 67%
21:00 +22°C° 0 mm 3 m/s 734 mmHg 67%
22:00 +21°C° 0 mm 3 m/s 734 mmHg 68%
23:00 +20°C° 0 mm 3 m/s 734 mmHg 70%

Mâine, 15 August, Sâmbătă

Timp Temperatura Precipitaţii Vânt Presiune Umiditate
00:00 +20°C° 0 mm 3 m/s 734 mmHg 72%
01:00 +19°C° 0 mm 3 m/s 734 mmHg 75%
02:00 +19°C° 0.2 mm 3 m/s 734 mmHg 76%
03:00 +19°C° 0.2 mm 3 m/s 734 mmHg 78%
04:00 +18°C° 0.2 mm 3 m/s 734 mmHg 80%
05:00 +19°C° 0.3 mm 3 m/s 734 mmHg 78%
06:00 +19°C° 0.3 mm 3 m/s 734 mmHg 75%
07:00 +20°C° 0.3 mm 3 m/s 734 mmHg 73%
08:00 +21°C° 0.2 mm 3 m/s 734 mmHg 69%
09:00 +23°C° 0.2 mm 2 m/s 735 mmHg 65%
10:00 +23°C° 0.2 mm 2 m/s 735 mmHg 62%
11:00 +24°C° 0 mm 2 m/s 735 mmHg 58%
12:00 +25°C° 0 mm 3 m/s 735 mmHg 55%
13:00 +26°C° 0 mm 3 m/s 735 mmHg 51%
14:00 +26°C° 0 mm 3 m/s 735 mmHg 52%
15:00 +25°C° 0 mm 3 m/s 735 mmHg 53%
16:00 +25°C° 0 mm 3 m/s 735 mmHg 54%
17:00 +24°C° 0 mm 3 m/s 735 mmHg 57%
18:00 +24°C° 0 mm 3 m/s 734 mmHg 60%
19:00 +22°C° 0 mm 3 m/s 734 mmHg 63%
20:00 +21°C° 0 mm 3 m/s 735 mmHg 66%
21:00 +20°C° 0 mm 3 m/s 735 mmHg 70%
22:00 +20°C° 0 mm 3 m/s 735 mmHg 73%
23:00 +19°C° 0 mm 3 m/s 735 mmHg 76%

Poimâine, 16 August, Duminică

Timp Temperatura Precipitaţii Vânt Presiune Umiditate
00:00 +18°C° 0 mm 3 m/s 735 mmHg 79%
01:00 +18°C° 0 mm 3 m/s 735 mmHg 82%
02:00 +17°C° 0 mm 3 m/s 735 mmHg 84%
03:00 +17°C° 0 mm 3 m/s 734 mmHg 86%
04:00 +16°C° 0 mm 3 m/s 734 mmHg 88%
05:00 +17°C° 0 mm 3 m/s 734 mmHg 84%
06:00 +18°C° 0 mm 3 m/s 735 mmHg 80%
07:00 +18°C° 0 mm 3 m/s 735 mmHg 76%
08:00 +20°C° 0 mm 3 m/s 735 mmHg 70%
09:00 +22°C° 0 mm 3 m/s 735 mmHg 63%
10:00 +24°C° 0 mm 3 m/s 735 mmHg 57%
11:00 +25°C° 0 mm 3 m/s 735 mmHg 54%
12:00 +26°C° 0 mm 3 m/s 735 mmHg 51%
13:00 +27°C° 0 mm 3 m/s 735 mmHg 48%
14:00 +27°C° 0 mm 3 m/s 735 mmHg 49%
15:00 +27°C° 0 mm 4 m/s 735 mmHg 50%
16:00 +27°C° 0 mm 4 m/s 734 mmHg 51%
17:00 +25°C° 0 mm 3 m/s 734 mmHg 58%
18:00 +24°C° 0 mm 3 m/s 734 mmHg 64%
19:00 +21°C° 0 mm 3 m/s 734 mmHg 70%
20:00 +20°C° 0 mm 3 m/s 734 mmHg 74%
21:00 +19°C° 0 mm 2 m/s 734 mmHg 78%
22:00 +19°C° 0 mm 2 m/s 734 mmHg 81%
23:00 +18°C° 0 mm 2 m/s 734 mmHg 83%

17 August, Luni

Timp Temperatura Precipitaţii Vânt Presiune Umiditate
00:00 +19°C° 0 mm 1 m/s 734 mmHg 85%
01:00 +18°C° 0 mm 1 m/s 733 mmHg 86%
02:00 +18°C° 0 mm 1 m/s 733 mmHg 87%
03:00 +16°C° 0 mm 0 m/s 733 mmHg 88%
04:00 +16°C° 0 mm 0 m/s 733 mmHg 89%
05:00 +17°C° 0 mm 0 m/s 733 mmHg 84%
06:00 +18°C° 0 mm 0 m/s 733 mmHg 80%
07:00 +19°C° 0 mm 0 m/s 733 mmHg 75%
08:00 +21°C° 0 mm 0 m/s 734 mmHg 68%
09:00 +25°C° 0 mm 1 m/s 734 mmHg 61%
10:00 +27°C° 0 mm 1 m/s 734 mmHg 54%
11:00 +28°C° 0 mm 1 m/s 733 mmHg 49%
12:00 +29°C° 0 mm 2 m/s 733 mmHg 44%
13:00 +29°C° 0 mm 2 m/s 733 mmHg 39%
14:00 +30°C° 0 mm 2 m/s 733 mmHg 38%
15:00 +30°C° 0 mm 2 m/s 733 mmHg 38%
16:00 +30°C° 0 mm 2 m/s 732 mmHg 37%
17:00 +28°C° 0 mm 2 m/s 732 mmHg 42%
18:00 +26°C° 0 mm 1 m/s 732 mmHg 47%
19:00 +25°C° 0 mm 1 m/s 732 mmHg 52%
20:00 +24°C° 0 mm 1 m/s 732 mmHg 57%
21:00 +23°C° 0 mm 1 m/s 732 mmHg 61%
22:00 +22°C° 0 mm 1 m/s 732 mmHg 66%
23:00 +22°C° 0 mm 1 m/s 732 mmHg 68%

18 August, Marţi

Timp Temperatura Precipitaţii Vânt Presiune Umiditate
00:00 +21°C° 0 mm 1 m/s 731 mmHg 70%
01:00 +21°C° 0 mm 1 m/s 731 mmHg 72%
02:00 +21°C° 0 mm 1 m/s 731 mmHg 74%
03:00 +20°C° 0 mm 1 m/s 731 mmHg 75%
04:00 +18°C° 0 mm 0 m/s 731 mmHg 76%
05:00 +21°C° 0.1 mm 1 m/s 731 mmHg 73%
06:00 +22°C° 0.1 mm 1 m/s 731 mmHg 71%
07:00 +23°C° 0.1 mm 1 m/s 731 mmHg 68%
08:00 +24°C° 0.5 mm 1 m/s 731 mmHg 67%
09:00 +25°C° 0.5 mm 1 m/s 731 mmHg 66%
10:00 +26°C° 0.5 mm 2 m/s 731 mmHg 64%
11:00 +25°C° 0.9 mm 3 m/s 730 mmHg 69%
12:00 +22°C° 0.9 mm 3 m/s 730 mmHg 74%
13:00 +21°C° 0.9 mm 4 m/s 730 mmHg 80%
14:00 +21°C° 0.6 mm 4 m/s 730 mmHg 82%
15:00 +20°C° 0.6 mm 4 m/s 730 mmHg 85%
16:00 +19°C° 0.6 mm 4 m/s 730 mmHg 88%
17:00 +19°C° 0.7 mm 5 m/s 730 mmHg 89%
18:00 +17°C° 0.7 mm 5 m/s 730 mmHg 90%
19:00 +17°C° 0.7 mm 5 m/s 730 mmHg 91%
20:00 +16°C° 0.5 mm 5 m/s 730 mmHg 90%
21:00 +16°C° 0.5 mm 5 m/s 731 mmHg 90%
22:00 +16°C° 0.5 mm 5 m/s 731 mmHg 89%
23:00 +16°C° 1.4 mm 5 m/s 731 mmHg 89%

19 August, Miercuri

Timp Temperatura Precipitaţii Vânt Presiune Umiditate
00:00 +16°C° 1.4 mm 5 m/s 731 mmHg 90%
01:00 +16°C° 1.4 mm 6 m/s 731 mmHg 90%
02:00 +16°C° 0.4 mm 5 m/s 731 mmHg 89%
03:00 +16°C° 0.4 mm 5 m/s 731 mmHg 89%
04:00 +15°C° 0.4 mm 5 m/s 731 mmHg 88%
05:00 +16°C° 0 mm 5 m/s 731 mmHg 87%
06:00 +16°C° 0 mm 5 m/s 731 mmHg 86%
07:00 +16°C° 0 mm 5 m/s 731 mmHg 85%
08:00 +17°C° 0.2 mm 5 m/s 732 mmHg 82%
09:00 +19°C° 0.2 mm 5 m/s 732 mmHg 80%
10:00 +19°C° 0.2 mm 5 m/s 732 mmHg 77%
11:00 +20°C° 0.4 mm 5 m/s 732 mmHg 71%
12:00 +22°C° 0.4 mm 6 m/s 732 mmHg 65%
13:00 +23°C° 0.4 mm 6 m/s 732 mmHg 59%
14:00 +23°C° 0.2 mm 5 m/s 732 mmHg 59%
15:00 +23°C° 0.2 mm 5 m/s 731 mmHg 58%
16:00 +23°C° 0.2 mm 5 m/s 731 mmHg 57%
17:00 +22°C° 0.4 mm 4 m/s 731 mmHg 64%
18:00 +20°C° 0.4 mm 4 m/s 731 mmHg 71%
19:00 +19°C° 0.4 mm 3 m/s 731 mmHg 78%
20:00 +18°C° 0.2 mm 3 m/s 731 mmHg 81%
21:00 +18°C° 0.2 mm 3 m/s 731 mmHg 84%
22:00 +17°C° 0.2 mm 3 m/s 732 mmHg 87%
23:00 +17°C° 0.2 mm 3 m/s 732 mmHg 88%
Arată mai mult